| time (UTC) | temp F | wind direction | speed knots | gust knots | rain 1hr in | rain 24hr in | rain mn in | humidity % | barometer mb |
| 20260506222016 | 30 | 288 | 1.7 | 7.8 | 0.00 | 0.00 | 0.00 | 63 | 1012.9 |
| 20260506220904 | 30 | 281 | 2.6 | 4.3 | 0.00 | 0.00 | 0.00 | 63 | 1012.9 |
| 20260506220215 | 29 | 319 | 2.6 | 4.3 | 0.00 | 0.00 | 0.00 | 64 | 1013.0 |
| 20260506215617 | 29 | 327 | 1.7 | 2.6 | 0.00 | 0.00 | 0.00 | 63 | 1013.0 |
| 20260506214714 | 29 | 25 | 1.7 | 1.7 | 0.00 | 0.00 | 0.00 | 63 | 1013.1 |
| 20260506213605 | 29 | 293 | 0.0 | 5.2 | 0.00 | 0.00 | 0.00 | 63 | 1013.1 |
| 20260506212703 | 30 | 296 | 5.2 | 7.0 | 0.00 | 0.00 | 0.00 | 63 | 1013.2 |
| 20260506212016 | 29 | 287 | 2.6 | 3.5 | 0.00 | 0.00 | 0.00 | 64 | 1013.2 |
| 20260506210903 | 28 | 337 | 0.9 | 1.7 | 0.00 | 0.00 | 0.00 | 63 | 1013.1 |
| 20260506210216 | 28 | 315 | 0.0 | 0.9 | 0.00 | 0.00 | 0.00 | 62 | 1012.9 |
| 20260506205403 | 28 | 135 | 0.0 | 1.7 | 0.00 | 0.00 | 0.00 | 60 | 1013.1 |
| 20260506204503 | 29 | 135 | 0.0 | 1.7 | 0.00 | 0.00 | 0.00 | 60 | 1013.0 |
| 20260506203603 | 29 | 202 | 0.0 | 0.9 | 0.00 | 0.00 | 0.00 | 59 | 1012.9 |
| 20260506202915 | 30 | 0 | 0.0 | 0.0 | 0.00 | 0.00 | 0.00 | 59 | 1012.9 |
| 20260506201803 | 30 | 349 | 0.9 | 1.7 | 0.00 | 0.00 | 0.00 | 59 | 1012.9 |
| 20260506201114 | 31 | 349 | 0.9 | 1.7 | 0.00 | 0.00 | 0.00 | 59 | 1012.9 |
| 20260506200003 | 31 | 315 | 1.7 | 2.6 | 0.00 | 0.00 | 0.00 | 58 | 1012.8 |
| 20260506195613 | 32 | 323 | 1.7 | 2.6 | 0.00 | 0.00 | 0.00 | 58 | 1012.8 |
| 20260506194716 | 32 | 311 | 1.7 | 5.2 | 0.00 | 0.00 | 0.00 | 58 | 1012.5 |
| 20260506193813 | 32 | 314 | 3.5 | 6.1 | 0.00 | 0.00 | 0.00 | 57 | 1012.4 |
| 20260506192703 | 32 | 343 | 2.6 | 3.5 | 0.00 | 0.00 | 0.00 | 56 | 1012.5 |
| 20260506191803 | 33 | 19 | 1.7 | 10.4 | 0.00 | 0.00 | 0.00 | 56 | 1012.4 |
| 20260506191115 | 33 | 360 | 0.0 | 10.4 | 0.00 | 0.00 | 0.00 | 56 | 1012.2 |
| 20260506190212 | 33 | 347 | 4.3 | 4.3 | 0.00 | 0.00 | 0.00 | 56 | 1012.2 |
| 20260506185614 | 34 | 334 | 4.3 | 4.3 | 0.00 | 0.00 | 0.00 | 56 | 1012.1 |
| 20260506184716 | 34 | 5 | 1.7 | 5.2 | 0.00 | 0.00 | 0.00 | 55 | 1012.1 |
| 20260506183604 | 34 | 334 | 0.9 | 2.6 | 0.00 | 0.00 | 0.00 | 54 | 1012.0 |
| 20260506182916 | 35 | 327 | 0.9 | 3.5 | 0.00 | 0.00 | 0.00 | 54 | 1011.9 |
| 20260506182013 | 35 | 279 | 1.7 | 2.6 | 0.00 | 0.00 | 0.00 | 53 | 1011.7 |
| 20260506180903 | 35 | 290 | 0.0 | 7.0 | 0.00 | 0.00 | 0.00 | 50 | 1011.6 |
| 20260506180213 | 36 | 279 | 3.5 | 7.0 | 0.00 | 0.00 | 0.00 | 50 | 1011.6 |
| 20260506175615 | 36 | 265 | 4.3 | 6.1 | 0.00 | 0.00 | 0.00 | 50 | 1011.5 |
| 20260506174717 | 36 | 287 | 2.6 | 7.0 | 0.00 | 0.00 | 0.00 | 49 | 1011.5 |
| 20260506173604 | 38 | 308 | 5.2 | 5.2 | 0.00 | 0.00 | 0.00 | 47 | 1011.5 |
| 20260506172703 | 38 | 299 | 2.6 | 9.6 | 0.00 | 0.00 | 0.00 | 47 | 1011.4 |
| 20260506171803 | 38 | 294 | 2.6 | 10.4 | 0.00 | 0.00 | 0.00 | 47 | 1011.4 |
| 20260506171116 | 37 | 297 | 5.2 | 12.2 | 0.00 | 0.00 | 0.00 | 48 | 1011.3 |
| 20260506170004 | 37 | 317 | 1.7 | 5.2 | 0.00 | 0.00 | 0.00 | 49 | 1011.3 |
| 20260506165615 | 37 | 284 | 5.2 | 5.2 | 0.00 | 0.00 | 0.00 | 50 | 1011.3 |
| 20260506164712 | 38 | 301 | 5.2 | 9.6 | 0.00 | 0.00 | 0.00 | 47 | 1011.2 |
| 20260506163603 | 40 | 276 | 8.7 | 8.7 | 0.00 | 0.00 | 0.00 | 45 | 1011.4 |
| 20260506162703 | 39 | 271 | 3.5 | 7.8 | 0.00 | 0.00 | 0.00 | 45 | 1011.4 |
| 20260506162015 | 40 | 282 | 4.3 | 11.3 | 0.00 | 0.00 | 0.00 | 46 | 1011.4 |
| 20260506160903 | 41 | 309 | 7.0 | 11.3 | 0.00 | 0.00 | 0.00 | 43 | 1011.4 |
| 20260506160214 | 43 | 333 | 4.3 | 4.3 | 0.00 | 0.00 | 0.00 | 43 | 1011.5 |
| 20260506155616 | 43 | 305 | 2.6 | 5.2 | 0.00 | 0.00 | 0.00 | 43 | 1011.5 |
| 20260506154713 | 44 | 356 | 1.7 | 7.0 | 0.00 | 0.00 | 0.00 | 43 | 1011.5 |
| 20260506153603 | 42 | 276 | 2.6 | 11.3 | 0.00 | 0.00 | 0.00 | 45 | 1011.4 |
| 20260506152703 | 42 | 282 | 11.3 | 11.3 | 0.00 | 0.00 | 0.00 | 45 | 1011.4 |
| 20260506151803 | 41 | 296 | 2.6 | 10.4 | 0.00 | 0.00 | 0.00 | 45 | 1011.3 |
| 20260506151113 | 42 | 299 | 3.5 | 12.2 | 0.00 | 0.00 | 0.00 | 44 | 1011.2 |
| 20260506150215 | 44 | 322 | 4.3 | 5.2 | 0.00 | 0.00 | 0.00 | 41 | 1011.2 |
| 20260506145403 | 42 | 293 | 3.5 | 8.7 | 0.00 | 0.00 | 0.00 | 42 | 1011.0 |
| 20260506144714 | 42 | 288 | 1.7 | 7.0 | 0.00 | 0.00 | 0.00 | 39 | 1011.1 |
| 20260506143605 | 44 | 298 | 0.0 | 8.7 | 0.00 | 0.00 | 0.00 | 39 | 1011.1 |
| 20260506142913 | 43 | 282 | 5.2 | 9.6 | 0.00 | 0.00 | 0.00 | 40 | 1011.2 |
| 20260506142016 | 42 | 307 | 8.7 | 9.6 | 0.00 | 0.00 | 0.00 | 39 | 1011.2 |
| 20260506140903 | 42 | 269 | 2.6 | 11.3 | 0.00 | 0.00 | 0.00 | 38 | 1011.2 |
| 20260506140215 | 42 | 273 | 11.3 | 11.3 | 0.00 | 0.00 | 0.00 | 37 | 1011.3 |
| 20260506135405 | 42 | 300 | 7.8 | 11.3 | 0.00 | 0.00 | 0.00 | 37 | 1011.1 |
| 20260506134714 | 42 | 283 | 2.6 | 11.3 | 0.00 | 0.00 | 0.00 | 39 | 1011.2 |
| 20260506133603 | 41 | 294 | 6.1 | 12.2 | 0.00 | 0.00 | 0.00 | 42 | 1011.2 |
| 20260506132914 | 40 | 301 | 1.7 | 12.2 | 0.00 | 0.00 | 0.00 | 41 | 1011.1 |
| 20260506132016 | 43 | 280 | 3.5 | 9.6 | 0.00 | 0.00 | 0.00 | 39 | 1011.1 |
| 20260506130903 | 44 | 274 | 7.0 | 11.3 | 0.00 | 0.00 | 0.00 | 40 | 1011.3 |
| 20260506130216 | 46 | 295 | 6.1 | 10.4 | 0.00 | 0.00 | 0.00 | 36 | 1011.3 |
| 20260506125613 | 47 | 313 | 1.7 | 7.0 | 0.00 | 0.00 | 0.00 | 35 | 1011.3 |
| 20260506124715 | 45 | 281 | 0.9 | 11.3 | 0.00 | 0.00 | 0.00 | 39 | 1011.2 |
| 20260506123603 | 43 | 273 | 5.2 | 7.8 | 0.00 | 0.00 | 0.00 | 41 | 1011.3 |
| 20260506122915 | 43 | 271 | 4.3 | 7.8 | 0.00 | 0.00 | 0.00 | 43 | 1011.4 |
| 20260506122017 | 43 | 261 | 7.8 | 7.8 | 0.00 | 0.00 | 0.00 | 42 | 1011.4 |
| 20260506120903 | 42 | 277 | 6.1 | 6.1 | 0.00 | 0.00 | 0.00 | 41 | 1011.3 |
| 20260506120217 | 42 | 275 | 4.3 | 7.8 | 0.00 | 0.00 | 0.00 | 42 | 1011.2 |
| 20260506115403 | 44 | 292 | 7.8 | 11.3 | 0.00 | 0.00 | 0.00 | 38 | 1011.2 |
| 20260506114503 | 43 | 293 | 6.1 | 9.6 | 0.00 | 0.00 | 0.00 | 40 | 1011.2 |
| 20260506113603 | 43 | 302 | 7.0 | 7.8 | 0.00 | 0.00 | 0.00 | 40 | 1011.3 |
| 20260506112915 | 44 | 319 | 1.7 | 7.0 | 0.00 | 0.00 | 0.00 | 43 | 1011.1 |
| 20260506112018 | 42 | 293 | 2.6 | 11.3 | 0.00 | 0.00 | 0.00 | 43 | 1011.1 |
| 20260506110903 | 44 | 296 | 3.5 | 7.8 | 0.00 | 0.00 | 0.00 | 41 | 1011.1 |
| 20260506110217 | 43 | 291 | 7.8 | 9.6 | 0.00 | 0.00 | 0.00 | 41 | 1011.2 |
| 20260506105614 | 42 | 273 | 1.7 | 9.6 | 0.00 | 0.00 | 0.00 | 40 | 1011.2 |
| 20260506104716 | 45 | 270 | 8.7 | 8.7 | 0.00 | 0.00 | 0.00 | 39 | 1011.1 |
| 20260506103814 | 41 | 287 | 3.5 | 12.2 | 0.00 | 0.00 | 0.00 | 43 | 1011.0 |
| 20260506102703 | 42 | 314 | 3.5 | 14.8 | 0.00 | 0.00 | 0.00 | 41 | 1011.1 |
| 20260506101803 | 39 | 282 | 2.6 | 7.8 | 0.00 | 0.00 | 0.00 | 46 | 1011.1 |
| 20260506101116 | 39 | 287 | 7.8 | 10.4 | 0.00 | 0.00 | 0.00 | 44 | 1011.1 |
| 20260506100003 | 39 | 306 | 0.9 | 6.1 | 0.00 | 0.00 | 0.00 | 45 | 1011.1 |
| 20260506095403 | 39 | 286 | 3.5 | 10.4 | 0.00 | 0.00 | 0.00 | 44 | 1011.1 |
| 20260506094503 | 40 | 281 | 10.4 | 10.4 | 0.00 | 0.00 | 0.00 | 44 | 1011.1 |
| 20260506093603 | 40 | 270 | 6.1 | 8.7 | 0.00 | 0.00 | 0.00 | 45 | 1011.2 |
| 20260506092917 | 41 | 278 | 8.7 | 8.7 | 0.00 | 0.00 | 0.00 | 45 | 1011.2 |
| 20260506092014 | 39 | 283 | 1.7 | 7.0 | 0.00 | 0.00 | 0.00 | 47 | 1011.1 |
| 20260506091116 | 38 | 272 | 5.2 | 6.1 | 0.00 | 0.00 | 0.00 | 47 | 1011.0 |
| 20260506090005 | 39 | 289 | 7.0 | 7.0 | 0.00 | 0.00 | 0.00 | 47 | 1011.1 |
| 20260506085403 | 38 | 290 | 5.2 | 5.2 | 0.00 | 0.00 | 0.00 | 46 | 1011.1 |
| 20260506084504 | 38 | 267 | 0.9 | 3.5 | 0.00 | 0.00 | 0.00 | 50 | 1011.2 |
| 20260506083603 | 37 | 285 | 1.7 | 10.4 | 0.00 | 0.00 | 0.00 | 48 | 1011.3 |
| 20260506082917 | 38 | 273 | 4.3 | 8.7 | 0.00 | 0.00 | 0.00 | 48 | 1011.3 |
| 20260506081803 | 38 | 287 | 8.7 | 8.7 | 0.00 | 0.00 | 0.00 | 48 | 1011.2 |
| 20260506081117 | 38 | 289 | 4.3 | 8.7 | 0.00 | 0.00 | 0.00 | 48 | 1011.2 |
| 20260506080214 | 36 | 282 | 7.0 | 7.8 | 0.00 | 0.00 | 0.00 | 50 | 1011.3 |
| 20260506072918 | 36 | 280 | 3.5 | 6.1 | 0.00 | 0.00 | 0.00 | 52 | 1011.3 |
| 20260506072016 | 35 | 313 | 6.1 | 6.1 | 0.00 | 0.00 | 0.00 | 52 | 1011.3 |
| 20260506071112 | 35 | 281 | 0.9 | 7.8 | 0.00 | 0.00 | 0.00 | 53 | 1011.4 |
| 20260506061803 | 34 | 272 | 3.5 | 6.1 | 0.00 | 0.00 | 0.00 | 55 | 1011.0 |
| 20260506061113 | 34 | 270 | 1.7 | 6.1 | 0.00 | 0.00 | 0.00 | 55 | 1010.9 |
| 20260506051114 | 29 | 293 | 5.2 | 7.0 | 0.00 | 0.00 | 0.00 | 62 | 1010.8 |
| 20260506044503 | 27 | 301 | 1.7 | 7.8 | 0.00 | 0.00 | 0.00 | 65 | 1010.8 |
| 20260506043817 | 26 | 326 | 0.0 | 3.5 | 0.00 | 0.00 | 0.00 | 66 | 1010.8 |
| 20260506042703 | 26 | 320 | 1.7 | 2.6 | 0.00 | 0.00 | 0.00 | 67 | 1010.8 |
| 20260506042017 | 26 | 317 | 2.6 | 2.6 | 0.00 | 0.00 | 0.00 | 68 | 1010.8 |
| 20260506041114 | 26 | 321 | 1.7 | 1.7 | 0.00 | 0.00 | 0.00 | 67 | 1010.9 |
| 20260506040217 | 26 | 311 | 1.7 | 4.3 | 0.00 | 0.00 | 0.00 | 66 | 1010.9 |
| 20260506035613 | 27 | 317 | 4.3 | 4.3 | 0.00 | 0.00 | 0.00 | 66 | 1010.9 |
| 20260506034716 | 27 | 319 | 4.3 | 4.3 | 0.00 | 0.00 | 0.00 | 66 | 1011.0 |
| 20260506033603 | 27 | 298 | 2.6 | 8.7 | 0.00 | 0.00 | 0.00 | 66 | 1010.9 |
| 20260506032915 | 28 | 301 | 1.7 | 7.8 | 0.00 | 0.00 | 0.00 | 67 | 1010.9 |
| 20260506031803 | 27 | 330 | 3.5 | 5.2 | 0.00 | 0.00 | 0.00 | 69 | 1011.0 |
| 20260506030903 | 26 | 317 | 3.5 | 4.3 | 0.00 | 0.00 | 0.00 | 71 | 1011.0 |
| 20260506030212 | 26 | 10 | 1.7 | 3.5 | 0.00 | 0.00 | 0.00 | 74 | 1011.0 |
| 20260506025614 | 25 | 7 | 1.7 | 3.5 | 0.00 | 0.00 | 0.00 | 75 | 1011.0 |
| 20260506024716 | 23 | 302 | 1.7 | 5.2 | 0.00 | 0.00 | 0.00 | 77 | 1011.1 |
| 20260506023603 | 21 | 101 | 0.0 | 1.7 | 0.00 | 0.00 | 0.00 | 77 | 1011.1 |
| 20260506022916 | 21 | 112 | 0.0 | 1.7 | 0.00 | 0.00 | 0.00 | 77 | 1011.2 |
| 20260506021803 | 20 | 0 | 0.0 | 0.0 | 0.00 | 0.00 | 0.00 | 76 | 1011.2 |
| 20260506021116 | 20 | 0 | 0.0 | 0.0 | 0.00 | 0.00 | 0.00 | 76 | 1011.2 |
| 20260506020003 | 21 | 0 | 0.0 | 0.0 | 0.00 | 0.00 | 0.00 | 76 | 1011.2 |
| 20260506015403 | 21 | 0 | 0.0 | 0.0 | 0.00 | 0.00 | 0.00 | 76 | 1011.3 |
| 20260506014717 | 21 | 0 | 0.0 | 0.0 | 0.00 | 0.00 | 0.00 | 76 | 1011.3 |
| 20260506013603 | 22 | 135 | 0.0 | 0.9 | 0.00 | 0.00 | 0.00 | 76 | 1011.3 |
| 20260506012703 | 22 | 0 | 0.0 | 0.0 | 0.00 | 0.00 | 0.00 | 76 | 1011.4 |
| 20260506011803 | 22 | 0 | 0.0 | 0.0 | 0.00 | 0.00 | 0.00 | 77 | 1011.3 |
| 20260506011116 | 23 | 0 | 0.0 | 0.0 | 0.00 | 0.00 | 0.00 | 77 | 1011.4 |
| 20260506010214 | 23 | 0 | 0.0 | 0.0 | 0.00 | 0.00 | 0.00 | 76 | 1011.4 |
| 20260506005403 | 23 | 0 | 0.0 | 0.0 | 0.00 | 0.00 | 0.00 | 77 | 1011.5 |
| 20260506004718 | 22 | 0 | 0.0 | 0.0 | 0.00 | 0.00 | 0.00 | 77 | 1011.4 |
| 20260506003815 | 22 | 0 | 0.0 | 0.0 | 0.00 | 0.00 | 0.00 | 75 | 1011.5 |
| 20260506002703 | 22 | 0 | 0.0 | 0.0 | 0.00 | 0.00 | 0.00 | 75 | 1011.5 |
| 20260506001805 | 22 | 0 | 0.0 | 0.0 | 0.00 | 0.00 | 0.00 | 75 | 1011.5 |
| 20260506000903 | 22 | 0 | 0.0 | 0.0 | 0.00 | 0.00 | 0.00 | 75 | 1011.4 |
| 20260506000003 | 22 | 0 | 0.0 | 0.0 | 0.00 | 0.00 | 0.00 | 75 | 1011.6 |
| 20260505235403 | 22 | 0 | 0.0 | 0.0 | 0.00 | 0.00 | 0.00 | 75 | 1011.7 |
| 20260505234713 | 22 | 0 | 0.0 | 0.0 | 0.00 | 0.00 | 0.00 | 74 | 1011.5 |
| 20260505233815 | 22 | 0 | 0.0 | 0.0 | 0.00 | 0.00 | 0.00 | 73 | 1011.5 |
| 20260505232913 | 22 | 0 | 0.0 | 0.0 | 0.00 | 0.00 | 0.00 | 73 | 1011.4 |
| 20260505232015 | 22 | 0 | 0.0 | 0.0 | 0.00 | 0.00 | 0.00 | 72 | 1011.3 |
| 20260505231112 | 23 | 0 | 0.0 | 0.0 | 0.00 | 0.00 | 0.00 | 72 | 1011.4 |
| 20260505230215 | 23 | 0 | 0.0 | 0.0 | 0.00 | 0.00 | 0.00 | 71 | 1011.1 |
| 20260505225403 | 23 | 0 | 0.0 | 0.0 | 0.00 | 0.00 | 0.00 | 71 | 1011.0 |
| 20260505224714 | 23 | 0 | 0.0 | 0.0 | 0.00 | 0.00 | 0.00 | 71 | 1011.0 |
| 20260505223603 | 24 | 135 | 0.0 | 0.9 | 0.00 | 0.00 | 0.00 | 70 | 1011.0 |